Location: Quaker Farms
(41.4276°N, 73.1557°W)
Time: 01:08:45
(UTC+00:00)

Altair - Pass Details

Date: 19 June 2021
Orbit: 1501 x 1682 km, 47.2° (Epoch: 23 July)

Event Time Altitude Azimuth Distance (km) Brightness Sun altitude
Rises 00:14:16 0° 297° (WNW) 4,831 13.5 1.5°
Reaches altitude 10° 00:17:22 10° 295° (WNW) 3,865 11.9 1.0°
Maximum altitude 00:27:12 70° 215° (SW) 1,754 7.9 -0.5°
Drops below altitude 10° 00:37:15 10° 134° (SE) 3,937 9.0 -2.1°
Enters shadow 00:39:40 - 133° (SE) 4,684 9.4 -2.5°
Sets 00:40:26 0° 132° (SE) 4,924 - -2.6°
